Time,TemperatureF,DewpointF,PressureIn,WindDirection,WindDirectionDegrees,WindSpeedMPH,WindSpeedGustMPH,Humidity,HourlyPrecipIn,Conditions,Clouds,dailyrainin,SoftwareType,DateUTC
2013-07-18 00:00:00,75.3,72.2,30.11,NE,45,0.0,0.0,90,0.00,,,0.00,Wunderground v.1.15,2013-07-18 04:00:00,
2013-07-18 00:05:00,75.1,72.0,30.11,NE,45,0.0,0.0,90,0.00,,,0.00,Wunderground v.1.15,2013-07-18 04:05:00,
2013-07-18 00:10:00,74.9,71.8,30.11,NE,45,0.0,0.0,90,0.00,,,0.00,Wunderground v.1.15,2013-07-18 04:10:00,
2013-07-18 00:15:00,74.9,71.8,30.10,NE,45,0.0,0.0,90,0.00,,,0.00,Wunderground v.1.15,2013-07-18 04:15:00,
2013-07-18 00:25:00,74.7,71.6,30.10,NE,45,0.0,0.0,90,0.00,,,0.00,Wunderground v.1.15,2013-07-18 04:25:00,
2013-07-18 00:30:00,74.6,71.5,30.10,NE,45,0.0,0.0,90,0.00,,,0.00,Wunderground v.1.15,2013-07-18 04:30:00,
2013-07-18 00:40:00,74.6,71.5,30.10,NE,45,0.0,0.0,90,0.00,,,0.00,Wunderground v.1.15,2013-07-18 04:40:00,
2013-07-18 00:45:00,74.4,71.3,30.09,NE,45,0.0,0.0,90,0.00,,,0.00,Wunderground v.1.15,2013-07-18 04:45:00,
2013-07-18 00:55:00,74.2,71.1,30.09,NE,45,0.0,0.0,90,0.00,,,0.00,Wunderground v.1.15,2013-07-18 04:55:00,
2013-07-18 01:00:00,74.0,70.9,30.09,NE,45,0.0,0.0,90,0.00,,,0.00,Wunderground v.1.15,2013-07-18 05:00:00,
2013-07-18 01:10:00,74.0,71.2,30.09,NE,45,0.0,0.0,91,0.00,,,0.00,Wunderground v.1.15,2013-07-18 05:10:00,
2013-07-18 01:15:00,73.9,71.1,30.09,NE,45,0.0,0.0,91,0.00,,,0.00,Wunderground v.1.15,2013-07-18 05:15:00,
2013-07-18 01:25:00,73.9,71.1,30.09,NE,45,0.0,0.0,91,0.00,,,0.00,Wunderground v.1.15,2013-07-18 05:25:00,
2013-07-18 01:30:00,73.7,70.9,30.10,NE,45,0.0,0.0,91,0.00,,,0.00,Wunderground v.1.15,2013-07-18 05:30:00,
2013-07-18 01:40:00,73.5,71.0,30.10,NE,45,0.0,0.0,92,0.00,,,0.00,Wunderground v.1.15,2013-07-18 05:40:00,
2013-07-18 01:45:00,73.5,70.7,30.09,NE,45,0.0,0.0,91,0.00,,,0.00,Wunderground v.1.15,2013-07-18 05:45:00,
2013-07-18 01:55:00,73.3,70.8,30.09,NE,45,0.0,0.0,92,0.00,,,0.00,Wunderground v.1.15,2013-07-18 05:55:00,
2013-07-18 02:00:00,73.3,70.8,30.09,NE,45,0.0,0.0,92,0.00,,,0.00,Wunderground v.1.15,2013-07-18 06:00:00,
2013-07-18 02:10:00,73.3,70.8,30.09,NE,45,0.0,0.0,92,0.00,,,0.00,Wunderground v.1.15,2013-07-18 06:10:00,
2013-07-18 02:15:00,73.3,70.8,30.09,NE,45,0.0,0.0,92,0.00,,,0.00,Wunderground v.1.15,2013-07-18 06:15:00,
2013-07-18 02:25:00,73.2,70.7,30.09,NE,45,0.0,0.0,92,0.00,,,0.00,Wunderground v.1.15,2013-07-18 06:25:00,
2013-07-18 02:30:00,73.0,70.5,30.09,NE,45,0.0,0.0,92,0.00,,,0.00,Wunderground v.1.15,2013-07-18 06:30:00,
2013-07-18 02:40:00,72.8,70.3,30.09,NE,45,0.0,0.0,92,0.00,,,0.00,Wunderground v.1.15,2013-07-18 06:40:00,
2013-07-18 02:45:00,72.8,70.3,30.08,NE,45,0.0,0.0,92,0.00,,,0.00,Wunderground v.1.15,2013-07-18 06:45:00,
2013-07-18 02:55:00,72.8,70.7,30.08,NE,45,0.0,0.0,93,0.00,,,0.00,Wunderground v.1.15,2013-07-18 06:55:00,
2013-07-18 03:00:00,72.7,70.6,30.08,NE,45,0.0,0.0,93,0.00,,,0.00,Wunderground v.1.15,2013-07-18 07:00:00,
2013-07-18 03:10:00,72.7,70.6,30.08,NE,45,0.0,0.0,93,0.00,,,0.00,Wunderground v.1.15,2013-07-18 07:10:00,
2013-07-18 03:15:00,72.7,70.6,30.08,NE,45,0.0,0.0,93,0.00,,,0.00,Wunderground v.1.15,2013-07-18 07:15:00,
2013-07-18 03:25:00,72.5,70.4,30.08,NE,45,0.0,0.0,93,0.00,,,0.00,Wunderground v.1.15,2013-07-18 07:25:00,
2013-07-18 03:30:00,72.5,70.4,30.08,NE,45,0.0,0.0,93,0.00,,,0.00,Wunderground v.1.15,2013-07-18 07:30:00,
2013-07-18 03:40:00,72.5,70.4,30.08,NE,45,0.0,0.0,93,0.00,,,0.00,Wunderground v.1.15,2013-07-18 07:40:00,
2013-07-18 03:45:00,72.3,70.2,30.08,NE,45,0.0,0.0,93,0.00,,,0.00,Wunderground v.1.15,2013-07-18 07:45:00,
2013-07-18 03:55:00,72.3,70.2,30.08,NE,45,0.0,0.0,93,0.00,,,0.00,Wunderground v.1.15,2013-07-18 07:55:00,
2013-07-18 04:00:00,72.3,70.5,30.07,NE,45,0.0,0.0,94,0.00,,,0.00,Wunderground v.1.15,2013-07-18 08:00:00,
2013-07-18 04:10:00,72.1,70.3,30.07,NE,45,0.0,0.0,94,0.00,,,0.00,Wunderground v.1.15,2013-07-18 08:10:00,
2013-07-18 04:15:00,72.1,70.3,30.07,NE,45,0.0,0.0,94,0.00,,,0.00,Wunderground v.1.15,2013-07-18 08:15:00,
2013-07-18 04:25:00,72.1,70.3,30.07,NE,45,0.0,0.0,94,0.00,,,0.00,Wunderground v.1.15,2013-07-18 08:25:00,
2013-07-18 04:30:00,72.0,70.2,30.07,NE,45,0.0,0.0,94,0.00,,,0.00,Wunderground v.1.15,2013-07-18 08:30:00,
2013-07-18 04:40:00,72.0,70.2,30.07,NE,45,0.0,0.0,94,0.00,,,0.00,Wunderground v.1.15,2013-07-18 08:40:00,
2013-07-18 04:45:00,71.8,70.0,30.07,NE,45,0.0,0.0,94,0.00,,,0.00,Wunderground v.1.15,2013-07-18 08:45:00,
2013-07-18 04:55:00,71.8,70.0,30.07,NE,45,0.0,0.0,94,0.00,,,0.00,Wunderground v.1.15,2013-07-18 08:55:00,
2013-07-18 05:00:00,71.8,70.0,30.06,NE,45,0.0,0.0,94,0.00,,,0.00,Wunderground v.1.15,2013-07-18 09:00:00,
2013-07-18 05:10:00,71.8,70.0,30.06,NE,45,0.0,0.0,94,0.00,,,0.00,Wunderground v.1.15,2013-07-18 09:10:00,
2013-07-18 05:15:00,71.8,70.0,30.06,NE,45,0.0,0.0,94,0.00,,,0.00,Wunderground v.1.15,2013-07-18 09:15:00,
2013-07-18 05:25:00,71.6,69.8,30.06,NE,45,0.0,0.0,94,0.00,,,0.00,Wunderground v.1.15,2013-07-18 09:25:00,
2013-07-18 05:30:00,71.6,69.8,30.06,NE,45,0.0,0.0,94,0.00,,,0.00,Wunderground v.1.15,2013-07-18 09:30:00,
2013-07-18 05:40:00,71.5,69.7,30.06,NE,45,0.0,0.0,94,0.00,,,0.00,Wunderground v.1.15,2013-07-18 09:40:00,
2013-07-18 05:45:00,71.5,69.7,30.06,NE,45,0.0,0.0,94,0.00,,,0.00,Wunderground v.1.15,2013-07-18 09:45:00,
2013-07-18 05:55:00,71.5,69.7,30.06,NE,45,0.0,0.0,94,0.00,,,0.00,Wunderground v.1.15,2013-07-18 09:55:00,
2013-07-18 06:00:00,71.5,69.7,30.06,NE,45,0.0,0.0,94,0.00,,,0.00,Wunderground v.1.15,2013-07-18 10:00:00,
2013-07-18 06:10:00,71.5,69.7,30.06,NE,45,0.0,0.0,94,0.00,,,0.00,Wunderground v.1.15,2013-07-18 10:10:00,
2013-07-18 06:15:00,71.3,69.5,30.06,NE,45,0.0,0.0,94,0.00,,,0.00,Wunderground v.1.15,2013-07-18 10:15:00,
2013-07-18 06:25:00,71.3,69.5,30.06,NE,45,0.0,0.0,94,0.00,,,0.00,Wunderground v.1.15,2013-07-18 10:25:00,
2013-07-18 06:30:00,71.5,70.0,30.07,NE,45,0.0,0.0,95,0.00,,,0.00,Wunderground v.1.15,2013-07-18 10:30:00,
2013-07-18 06:40:00,71.6,70.1,30.07,NE,45,0.0,0.0,95,0.00,,,0.00,Wunderground v.1.15,2013-07-18 10:40:00,
2013-07-18 06:45:00,71.6,70.1,30.07,NE,45,0.0,0.0,95,0.00,,,0.00,Wunderground v.1.15,2013-07-18 10:45:00,
2013-07-18 06:55:00,72.0,70.5,30.07,NE,45,0.0,0.0,95,0.00,,,0.00,Wunderground v.1.15,2013-07-18 10:55:00,
2013-07-18 07:00:00,72.1,70.6,30.07,NE,45,0.0,0.0,95,0.00,,,0.00,Wunderground v.1.15,2013-07-18 11:00:00,
2013-07-18 07:10:00,72.1,70.6,30.07,NE,45,0.0,0.0,95,0.00,,,0.00,Wunderground v.1.15,2013-07-18 11:10:00,
2013-07-18 07:15:00,72.3,70.8,30.07,NE,45,0.0,0.0,95,0.00,,,0.00,Wunderground v.1.15,2013-07-18 11:15:00,
2013-07-18 07:25:00,72.5,71.0,30.07,NE,45,0.0,0.0,95,0.00,,,0.00,Wunderground v.1.15,2013-07-18 11:25:00,
2013-07-18 07:30:00,72.7,71.2,30.07,NE,45,0.0,0.0,95,0.00,,,0.00,Wunderground v.1.15,2013-07-18 11:30:00,
2013-07-18 07:40:00,72.8,71.3,30.07,NE,45,0.0,0.0,95,0.00,,,0.00,Wunderground v.1.15,2013-07-18 11:40:00,
2013-07-18 07:45:00,73.0,71.5,30.07,NE,45,0.0,0.0,95,0.00,,,0.00,Wunderground v.1.15,2013-07-18 11:45:00,
2013-07-18 07:55:00,73.3,71.8,30.07,NE,45,0.0,0.0,95,0.00,,,0.00,Wunderground v.1.15,2013-07-18 11:55:00,
2013-07-18 08:00:00,73.5,72.0,30.07,NE,45,0.0,0.0,95,0.00,,,0.00,Wunderground v.1.15,2013-07-18 12:00:00,
2013-07-18 08:10:00,74.0,72.5,30.07,NE,45,0.0,0.0,95,0.00,,,0.00,Wunderground v.1.15,2013-07-18 12:10:00,
2013-07-18 08:15:00,74.2,72.4,30.07,NE,45,0.0,0.0,94,0.00,,,0.00,Wunderground v.1.15,2013-07-18 12:15:00,
2013-07-18 08:25:00,74.7,72.9,30.07,NE,45,0.0,0.0,94,0.00,,,0.00,Wunderground v.1.15,2013-07-18 12:25:00,
2013-07-18 08:30:00,75.1,72.9,30.07,NE,45,0.0,0.0,93,0.00,,,0.00,Wunderground v.1.15,2013-07-18 12:30:00,
2013-07-18 08:35:00,75.4,73.2,30.07,NE,45,0.0,0.0,93,0.00,,,0.00,Wunderground v.1.15,2013-07-18 12:35:00,
2013-07-18 08:40:00,75.8,73.3,30.07,NE,45,0.0,0.0,92,0.00,,,0.00,Wunderground v.1.15,2013-07-18 12:40:00,
2013-07-18 08:45:00,76.3,73.5,30.07,NE,45,0.0,0.0,91,0.00,,,0.00,Wunderground v.1.15,2013-07-18 12:45:00,
2013-07-18 08:55:00,77.0,73.5,30.07,NE,45,0.0,0.0,89,0.00,,,0.00,Wunderground v.1.15,2013-07-18 12:55:00,
2013-07-18 09:00:00,77.6,73.8,30.07,NE,45,0.0,0.0,88,0.00,,,0.00,Wunderground v.1.15,2013-07-18 13:00:00,
2013-07-18 09:10:00,78.6,74.1,30.07,NE,45,0.0,0.0,86,0.00,,,0.00,Wunderground v.1.15,2013-07-18 13:10:00,
2013-07-18 09:15:00,79.2,74.3,30.08,NNE,32,0.0,0.0,85,0.00,,,0.00,Wunderground v.1.15,2013-07-18 13:15:00,
2013-07-18 09:25:00,79.8,74.5,30.08,NNE,32,0.0,0.0,84,0.00,,,0.00,Wunderground v.1.15,2013-07-18 13:25:00,
2013-07-18 09:30:00,79.9,74.6,30.08,NNE,32,0.0,0.0,84,0.00,,,0.00,Wunderground v.1.15,2013-07-18 13:30:00,
2013-07-18 09:40:00,80.7,75.1,30.08,NNE,32,0.0,0.0,83,0.00,,,0.00,Wunderground v.1.15,2013-07-18 13:40:00,
2013-07-18 09:45:00,80.9,74.1,30.07,NNE,32,0.0,0.0,80,0.00,,,0.00,Wunderground v.1.15,2013-07-18 13:45:00,
2013-07-18 09:55:00,81.4,73.9,30.07,ESE,109,0.0,1.0,78,0.00,,,0.00,Wunderground v.1.15,2013-07-18 13:55:00,
2013-07-18 10:00:00,81.6,74.1,30.07,ESE,109,0.0,0.0,78,0.00,,,0.00,Wunderground v.1.15,2013-07-18 14:00:00,
2013-07-18 10:10:00,82.4,74.1,30.07,ESE,109,0.0,0.0,76,0.00,,,0.00,Wunderground v.1.15,2013-07-18 14:10:00,
2013-07-18 10:15:00,82.6,74.3,30.07,ESE,109,0.0,0.0,76,0.00,,,0.00,Wunderground v.1.15,2013-07-18 14:15:00,
2013-07-18 10:25:00,83.0,73.0,30.07,ENE,75,0.0,0.0,72,0.00,,,0.00,Wunderground v.1.15,2013-07-18 14:25:00,
2013-07-18 10:30:00,83.0,73.9,30.07,ENE,75,0.0,0.0,74,0.00,,,0.00,Wunderground v.1.15,2013-07-18 14:30:00,
2013-07-18 10:40:00,83.6,73.6,30.07,ENE,75,0.0,0.0,72,0.00,,,0.00,Wunderground v.1.15,2013-07-18 14:40:00,
2013-07-18 10:45:00,83.6,73.2,30.07,ENE,75,0.0,0.0,71,0.00,,,0.00,Wunderground v.1.15,2013-07-18 14:45:00,
2013-07-18 10:55:00,84.1,72.4,30.07,ESE,103,0.0,1.0,68,0.00,,,0.00,Wunderground v.1.15,2013-07-18 14:55:00,
2013-07-18 11:00:00,84.9,74.9,30.06,ESE,103,0.0,0.0,72,0.00,,,0.00,Wunderground v.1.15,2013-07-18 15:00:00,
2013-07-18 11:10:00,85.5,73.3,30.06,ESE,103,0.0,0.0,67,0.00,,,0.00,Wunderground v.1.15,2013-07-18 15:10:00,
2013-07-18 11:15:00,85.9,74.1,30.06,ESE,103,0.0,1.0,68,0.00,,,0.00,Wunderground v.1.15,2013-07-18 15:15:00,
2013-07-18 11:25:00,86.7,72.6,30.06,ENE,66,0.0,2.0,63,0.00,,,0.00,Wunderground v.1.15,2013-07-18 15:25:00,
2013-07-18 11:30:00,87.0,73.3,30.05,ENE,59,1.0,1.0,64,0.00,,,0.00,Wunderground v.1.15,2013-07-18 15:30:00,
2013-07-18 11:40:00,87.4,73.7,30.05,ENE,59,0.0,0.0,64,0.00,,,0.00,Wunderground v.1.15,2013-07-18 15:40:00,
2013-07-18 11:45:00,87.0,74.7,30.05,ENE,59,0.0,0.0,67,0.00,,,0.00,Wunderground v.1.15,2013-07-18 15:45:00,
2013-07-18 11:55:00,85.5,74.6,30.05,ENE,59,0.0,0.0,70,0.00,,,0.00,Wunderground v.1.15,2013-07-18 15:55:00,
2013-07-18 12:00:00,85.3,73.5,30.05,ENE,59,0.0,0.0,68,0.00,,,0.00,Wunderground v.1.15,2013-07-18 16:00:00,
2013-07-18 12:10:00,85.3,74.0,30.05,ENE,59,0.0,0.0,69,0.00,,,0.00,Wunderground v.1.15,2013-07-18 16:10:00,
2013-07-18 12:15:00,85.1,74.2,30.05,ENE,59,0.0,0.0,70,0.00,,,0.00,Wunderground v.1.15,2013-07-18 16:15:00,
2013-07-18 12:25:00,85.1,74.2,30.05,ENE,59,0.0,0.0,70,0.00,,,0.00,Wunderground v.1.15,2013-07-18 16:25:00,
2013-07-18 12:30:00,86.1,74.7,30.05,NNE,27,0.0,0.0,69,0.00,,,0.00,Wunderground v.1.15,2013-07-18 16:30:00,
2013-07-18 12:40:00,85.9,71.4,30.05,SE,142,0.0,0.0,62,0.00,,,0.00,Wunderground v.1.15,2013-07-18 16:40:00,
2013-07-18 12:45:00,86.5,74.7,30.05,SE,143,0.0,2.0,68,0.00,,,0.00,Wunderground v.1.15,2013-07-18 16:45:00,
2013-07-18 12:55:00,86.5,73.3,30.05,SE,127,1.0,1.0,65,0.00,,,0.00,Wunderground v.1.15,2013-07-18 16:55:00,
2013-07-18 13:00:00,86.1,73.0,30.05,SE,127,0.0,0.0,65,0.00,,,0.00,Wunderground v.1.15,2013-07-18 17:00:00,
2013-07-18 13:05:00,85.7,73.0,30.05,SE,127,0.0,0.0,66,0.00,,,0.00,Wunderground v.1.15,2013-07-18 17:05:00,
2013-07-18 13:15:00,87.2,72.1,30.04,South,181,0.0,3.0,61,0.00,,,0.00,Wunderground v.1.15,2013-07-18 17:15:00,
2013-07-18 13:25:00,87.6,73.4,30.04,SW,216,1.0,1.0,63,0.00,,,0.00,Wunderground v.1.15,2013-07-18 17:25:00,
2013-07-18 13:30:00,86.5,71.9,30.04,SW,215,1.0,1.0,62,0.00,,,0.00,Wunderground v.1.15,2013-07-18 17:30:00,
2013-07-18 13:40:00,86.5,73.3,30.04,SW,215,0.0,0.0,65,0.00,,,0.00,Wunderground v.1.15,2013-07-18 17:40:00,
2013-07-18 13:45:00,87.0,72.4,30.03,SW,215,0.0,0.0,62,0.00,,,0.00,Wunderground v.1.15,2013-07-18 17:45:00,
2013-07-18 13:55:00,87.8,74.6,30.03,SW,215,0.0,0.0,65,0.00,,,0.00,Wunderground v.1.15,2013-07-18 17:55:00,
2013-07-18 14:00:00,87.6,75.7,30.03,SW,215,0.0,0.0,68,0.00,,,0.00,Wunderground v.1.15,2013-07-18 18:00:00,
2013-07-18 14:10:00,87.4,74.6,30.03,SW,215,0.0,0.0,66,0.00,,,0.00,Wunderground v.1.15,2013-07-18 18:10:00,
2013-07-18 14:15:00,87.2,73.5,30.02,SW,215,0.0,0.0,64,0.00,,,0.00,Wunderground v.1.15,2013-07-18 18:15:00,
2013-07-18 14:25:00,86.3,74.9,30.02,SW,215,0.0,0.0,69,0.00,,,0.00,Wunderground v.1.15,2013-07-18 18:25:00,
2013-07-18 14:30:00,86.1,75.2,30.02,SW,215,0.0,0.0,70,0.00,,,0.00,Wunderground v.1.15,2013-07-18 18:30:00,
2013-07-18 14:40:00,87.2,74.9,30.02,SSW,202,0.0,1.0,67,0.00,,,0.00,Wunderground v.1.15,2013-07-18 18:40:00,
2013-07-18 14:45:00,87.6,72.5,30.02,East,90,1.0,2.0,61,0.00,,,0.00,Wunderground v.1.15,2013-07-18 18:45:00,
2013-07-18 14:55:00,87.2,74.0,30.02,East,84,1.0,3.0,65,0.00,,,0.00,Wunderground v.1.15,2013-07-18 18:55:00,
2013-07-18 15:00:00,86.3,72.7,30.02,NE,41,1.0,1.0,64,0.00,,,0.00,Wunderground v.1.15,2013-07-18 19:00:00,
2013-07-18 15:10:00,84.3,71.7,30.02,NE,52,1.0,1.0,66,0.00,,,0.00,Wunderground v.1.15,2013-07-18 19:10:00,
2013-07-18 15:15:00,83.8,71.7,30.02,ENE,58,0.0,1.0,67,0.00,,,0.00,Wunderground v.1.15,2013-07-18 19:15:00,
2013-07-18 15:25:00,82.8,71.2,30.02,ENE,58,0.0,0.0,68,0.00,,,0.00,Wunderground v.1.15,2013-07-18 19:25:00,
2013-07-18 15:30:00,82.4,70.8,30.01,ENE,58,0.0,1.0,68,0.00,,,0.00,Wunderground v.1.15,2013-07-18 19:30:00,
2013-07-18 15:40:00,82.6,71.0,30.01,ENE,58,0.0,0.0,68,0.00,,,0.00,Wunderground v.1.15,2013-07-18 19:40:00,
2013-07-18 15:45:00,82.8,69.8,30.01,ENE,58,0.0,0.0,65,0.00,,,0.00,Wunderground v.1.15,2013-07-18 19:45:00,
2013-07-18 15:55:00,83.6,72.3,30.01,ENE,74,0.0,0.0,69,0.00,,,0.00,Wunderground v.1.15,2013-07-18 19:55:00,
2013-07-18 16:00:00,83.6,73.2,30.00,ENE,74,0.0,0.0,71,0.00,,,0.00,Wunderground v.1.15,2013-07-18 20:00:00,
2013-07-18 16:10:00,82.8,73.3,30.00,ENE,74,0.0,0.0,73,0.00,,,0.00,Wunderground v.1.15,2013-07-18 20:10:00,
2013-07-18 16:15:00,82.4,73.7,29.99,ENE,74,0.0,0.0,75,0.00,,,0.00,Wunderground v.1.15,2013-07-18 20:15:00,
2013-07-18 16:25:00,81.8,73.5,29.99,ENE,74,0.0,0.0,76,0.00,,,0.00,Wunderground v.1.15,2013-07-18 20:25:00,
2013-07-18 16:30:00,81.6,73.7,30.00,ENE,74,0.0,0.0,77,0.00,,,0.00,Wunderground v.1.15,2013-07-18 20:30:00,
2013-07-18 16:40:00,81.4,74.3,30.00,ENE,74,0.0,0.0,79,0.00,,,0.00,Wunderground v.1.15,2013-07-18 20:40:00,
2013-07-18 16:45:00,81.1,74.0,29.99,ENE,74,0.0,0.0,79,0.00,,,0.00,Wunderground v.1.15,2013-07-18 20:45:00,
2013-07-18 16:55:00,80.7,72.4,29.99,ENE,74,0.0,0.0,76,0.00,,,0.00,Wunderground v.1.15,2013-07-18 20:55:00,
2013-07-18 17:00:00,80.3,71.6,29.99,ENE,74,0.0,0.0,75,0.00,,,0.00,Wunderground v.1.15,2013-07-18 21:00:00,
2013-07-18 17:10:00,79.8,71.6,29.99,NE,55,0.0,0.0,76,0.00,,,0.00,Wunderground v.1.15,2013-07-18 21:10:00,
2013-07-18 17:15:00,79.4,70.8,29.99,ENE,57,0.0,0.0,75,0.00,,,0.00,Wunderground v.1.15,2013-07-18 21:15:00,
2013-07-18 17:25:00,79.0,70.8,29.99,ENE,57,0.0,0.0,76,0.00,,,0.00,Wunderground v.1.15,2013-07-18 21:25:00,
2013-07-18 17:30:00,79.0,71.6,29.98,ENE,57,0.0,0.0,78,0.00,,,0.00,Wunderground v.1.15,2013-07-18 21:30:00,
2013-07-18 17:40:00,79.2,71.7,29.98,ENE,57,0.0,0.0,78,0.00,,,0.00,Wunderground v.1.15,2013-07-18 21:40:00,
2013-07-18 17:45:00,79.4,72.3,29.97,ENE,57,0.0,0.0,79,0.00,,,0.00,Wunderground v.1.15,2013-07-18 21:45:00,
2013-07-18 17:55:00,79.6,72.1,29.97,ENE,57,0.0,0.0,78,0.00,,,0.00,Wunderground v.1.15,2013-07-18 21:55:00,
2013-07-18 18:00:00,79.8,71.9,29.96,ENE,57,0.0,0.0,77,0.00,,,0.00,Wunderground v.1.15,2013-07-18 22:00:00,
2013-07-18 18:10:00,80.5,73.0,29.96,ENE,57,0.0,0.0,78,0.00,,,0.00,Wunderground v.1.15,2013-07-18 22:10:00,
2013-07-18 18:15:00,81.1,74.0,29.96,ENE,57,0.0,0.0,79,0.00,,,0.00,Wunderground v.1.15,2013-07-18 22:15:00,
2013-07-18 18:25:00,82.0,74.1,29.96,ENE,57,0.0,0.0,77,0.00,,,0.00,Wunderground v.1.15,2013-07-18 22:25:00,
2013-07-18 18:30:00,82.8,75.2,29.96,ENE,57,0.0,0.0,78,0.00,,,0.00,Wunderground v.1.15,2013-07-18 22:30:00,
2013-07-18 18:40:00,83.6,75.6,29.96,ENE,57,0.0,0.0,77,0.00,,,0.00,Wunderground v.1.15,2013-07-18 22:40:00,
2013-07-18 18:45:00,84.1,76.1,29.94,ENE,57,0.0,0.0,77,0.00,,,0.00,Wunderground v.1.15,2013-07-18 22:45:00,
2013-07-18 18:55:00,84.5,75.7,29.94,ENE,57,0.0,0.0,75,0.00,,,0.00,Wunderground v.1.15,2013-07-18 22:55:00,
2013-07-18 19:00:00,84.3,74.7,29.94,ENE,57,0.0,0.0,73,0.00,,,0.00,Wunderground v.1.15,2013-07-18 23:00:00,
2013-07-18 19:10:00,84.3,75.5,29.94,ENE,57,0.0,0.0,75,0.00,,,0.00,Wunderground v.1.15,2013-07-18 23:10:00,
2013-07-18 19:15:00,84.1,74.9,29.94,ENE,57,0.0,0.0,74,0.00,,,0.00,Wunderground v.1.15,2013-07-18 23:15:00,
2013-07-18 19:25:00,84.0,75.2,29.94,ENE,57,0.0,0.0,75,0.00,,,0.00,Wunderground v.1.15,2013-07-18 23:25:00,
2013-07-18 19:30:00,84.0,76.4,29.94,ENE,57,0.0,0.0,78,0.00,,,0.00,Wunderground v.1.15,2013-07-18 23:30:00,
2013-07-18 19:40:00,83.8,75.4,29.94,ENE,57,0.0,0.0,76,0.00,,,0.00,Wunderground v.1.15,2013-07-18 23:40:00,
2013-07-18 19:45:00,83.8,75.8,29.94,ENE,57,0.0,0.0,77,0.00,,,0.00,Wunderground v.1.15,2013-07-18 23:45:00,
2013-07-18 19:55:00,83.6,75.6,29.94,ENE,57,0.0,0.0,77,0.00,,,0.00,Wunderground v.1.15,2013-07-18 23:55:00,
2013-07-18 20:00:00,83.2,74.8,29.94,ENE,57,0.0,0.0,76,0.00,,,0.00,Wunderground v.1.15,2013-07-19 00:00:00,
2013-07-18 20:10:00,83.0,75.4,29.94,ENE,57,0.0,0.0,78,0.00,,,0.00,Wunderground v.1.15,2013-07-19 00:10:00,
2013-07-18 20:15:00,82.6,75.8,29.94,ENE,57,0.0,0.0,80,0.00,,,0.00,Wunderground v.1.15,2013-07-19 00:15:00,
2013-07-18 20:25:00,81.8,75.4,29.94,ENE,57,0.0,0.0,81,0.00,,,0.00,Wunderground v.1.15,2013-07-19 00:25:00,
2013-07-18 20:30:00,81.4,75.4,29.95,ENE,57,0.0,0.0,82,0.00,,,0.00,Wunderground v.1.15,2013-07-19 00:30:00,
2013-07-18 20:40:00,80.9,75.2,29.95,ENE,57,0.0,0.0,83,0.00,,,0.00,Wunderground v.1.15,2013-07-19 00:40:00,
2013-07-18 20:45:00,80.7,75.1,29.94,ENE,57,0.0,0.0,83,0.00,,,0.00,Wunderground v.1.15,2013-07-19 00:45:00,
2013-07-18 20:55:00,80.1,75.2,29.94,ENE,57,0.0,0.0,85,0.00,,,0.00,Wunderground v.1.15,2013-07-19 00:55:00,
2013-07-18 21:00:00,79.8,74.9,29.94,ENE,57,0.0,0.0,85,0.00,,,0.00,Wunderground v.1.15,2013-07-19 01:00:00,
2013-07-18 21:05:00,79.4,74.5,29.94,ENE,57,0.0,0.0,85,0.00,,,0.00,Wunderground v.1.15,2013-07-19 01:05:00,
2013-07-18 21:20:00,78.6,74.4,29.94,ENE,57,0.0,0.0,87,0.00,,,0.00,Wunderground v.1.15,2013-07-19 01:20:00,
2013-07-18 21:25:00,78.5,74.3,29.94,ENE,57,0.0,0.0,87,0.00,,,0.00,Wunderground v.1.15,2013-07-19 01:25:00,
2013-07-18 21:30:00,78.1,74.3,29.94,ENE,57,0.0,0.0,88,0.00,,,0.00,Wunderground v.1.15,2013-07-19 01:30:00,
2013-07-18 21:40:00,77.7,74.2,29.94,ENE,57,0.0,0.0,89,0.00,,,0.00,Wunderground v.1.15,2013-07-19 01:40:00,
2013-07-18 21:45:00,77.4,73.9,29.95,ENE,57,0.0,0.0,89,0.00,,,0.00,Wunderground v.1.15,2013-07-19 01:45:00,
2013-07-18 21:55:00,77.0,73.8,29.95,ENE,57,0.0,0.0,90,0.00,,,0.00,Wunderground v.1.15,2013-07-19 01:55:00,
2013-07-18 22:00:00,77.0,74.2,29.95,ENE,57,0.0,0.0,91,0.00,,,0.00,Wunderground v.1.15,2013-07-19 02:00:00,
2013-07-18 22:10:00,76.8,74.0,29.95,ENE,57,0.0,0.0,91,0.00,,,0.00,Wunderground v.1.15,2013-07-19 02:10:00,
2013-07-18 22:15:00,76.7,73.9,29.95,ENE,57,0.0,0.0,91,0.00,,,0.00,Wunderground v.1.15,2013-07-19 02:15:00,
2013-07-18 22:25:00,76.5,73.7,29.95,ENE,57,0.0,0.0,91,0.00,,,0.00,Wunderground v.1.15,2013-07-19 02:25:00,
2013-07-18 22:30:00,76.5,73.7,29.96,ENE,57,0.0,0.0,91,0.00,,,0.00,Wunderground v.1.15,2013-07-19 02:30:00,
2013-07-18 22:40:00,76.3,73.5,29.96,ENE,57,0.0,0.0,91,0.00,,,0.00,Wunderground v.1.15,2013-07-19 02:40:00,
2013-07-18 22:45:00,76.5,74.0,29.95,ENE,57,0.0,0.0,92,0.00,,,0.00,Wunderground v.1.15,2013-07-19 02:45:00,
2013-07-18 22:55:00,76.3,73.5,29.95,ENE,57,0.0,0.0,91,0.00,,,0.00,Wunderground v.1.15,2013-07-19 02:55:00,
2013-07-18 23:00:00,76.1,73.6,29.96,ENE,57,0.0,0.0,92,0.00,,,0.00,Wunderground v.1.15,2013-07-19 03:00:00,
2013-07-18 23:10:00,76.0,73.5,29.96,ENE,57,0.0,0.0,92,0.00,,,0.00,Wunderground v.1.15,2013-07-19 03:10:00,
2013-07-18 23:15:00,75.8,73.3,29.94,ENE,57,0.0,0.0,92,0.00,,,0.00,Wunderground v.1.15,2013-07-19 03:15:00,
2013-07-18 23:25:00,75.4,72.9,29.94,ENE,57,0.0,0.0,92,0.00,,,0.00,Wunderground v.1.15,2013-07-19 03:25:00,
2013-07-18 23:30:00,75.3,72.8,29.94,ENE,57,0.0,0.0,92,0.00,,,0.00,Wunderground v.1.15,2013-07-19 03:30:00,
2013-07-18 23:40:00,75.1,72.6,29.94,ENE,57,0.0,0.0,92,0.00,,,0.00,Wunderground v.1.15,2013-07-19 03:40:00,
2013-07-18 23:45:00,74.9,72.4,29.94,ENE,57,0.0,0.0,92,0.00,,,0.00,Wunderground v.1.15,2013-07-19 03:45:00,
2013-07-18 23:55:00,74.7,72.2,29.94,ENE,57,0.0,0.0,92,0.00,,,0.00,Wunderground v.1.15,2013-07-19 03:55:00,